EW7966 Weather Reports


time (UTC)temp
F
wind
direction
speed
knots
gust
knots
rain 1hr
in
rain 24hr
in
rain mn
in
humidity
%
barometer
mb
20260504025006 53 15 0.0 0.0 0.00 0.00 0.00 39 1012.0
20260504024504 54 15 0.0 0.0 0.00 0.00 0.00 39 1012.0
20260504024502 54 15 0.0 0.0 0.00 0.00 0.00 39 1002.7
20260504024005 54 15 0.0 0.0 0.00 0.00 0.00 39 1011.9
20260504023005 55 15 0.0 0.9 0.00 0.00 0.00 37 1011.8
20260504023003 55 15 0.0 0.9 0.00 0.00 0.00 37 1002.6
20260504022504 55 15 0.0 0.9 0.00 0.00 0.00 37 1011.8
20260504022005 56 15 0.0 1.7 0.00 0.00 0.00 37 1011.8
20260504021505 56 15 0.0 4.3 0.00 0.00 0.00 36 1011.8
20260504021503 56 15 0.0 4.3 0.00 0.00 0.00 36 1002.5
20260504021005 57 15 0.9 4.3 0.00 0.00 0.00 34 1011.7
20260504020006 58 330 2.6 5.2 0.00 0.00 0.00 32 1011.6
20260504020004 58 330 1.7 5.2 0.00 0.00 0.00 32 1002.4
20260504015505 58 328 2.6 5.2 0.00 0.00 0.00 31 1011.6
20260504014511 59 324 2.6 7.0 0.00 0.00 0.00 30 1002.5
20260504014006 59 319 2.6 7.8 0.00 0.00 0.00 30 1011.8
20260504013506 59 317 3.5 11.3 0.00 0.00 0.00 30 1011.7
20260504013007 60 350 2.6 11.3 0.00 0.00 0.00 29 1011.7
20260504013004 60 350 2.6 11.3 0.00 0.00 0.00 29 1002.5
20260504012005 60 26 0.9 4.3 0.00 0.00 0.00 29 1011.5
20260504011505 60 355 1.7 4.3 0.00 0.00 0.00 28 1011.5
20260504011502 60 355 1.7 4.3 0.00 0.00 0.00 28 1002.3
20260504010007 61 337 2.6 6.1 0.00 0.00 0.00 27 1011.3
20260504010005 61 337 1.7 6.1 0.00 0.00 0.00 27 1002.2
20260504005459 61 355 1.7 5.2 0.00 0.00 0.00 28 1011.2
20260504005005 62 349 2.6 9.6 0.00 0.00 0.00 26 1011.2
20260504004504 62 36 2.6 9.6 0.00 0.00 0.00 25 1011.1
20260504004005 63 355 6.1 13.0 0.00 0.00 0.00 24 1011.1
20260504003008 63 48 3.5 8.7 0.00 0.00 0.00 23 1002.1
20260504003006 63 48 3.5 8.7 0.00 0.00 0.00 23 1011.2
20260504002505 64 53 4.3 11.3 0.00 0.00 0.00 21 1011.2
20260504001505 65 14 2.6 5.2 0.00 0.00 0.00 21 1011.3
20260504001503 65 14 2.6 5.2 0.00 0.00 0.00 21 1002.2
20260504001005 65 16 1.7 3.5 0.00 0.00 0.00 20 1011.2
20260504000006 65 16 1.7 3.5 0.00 0.00 0.00 19 1011.2
20260504000004 65 16 1.7 3.5 0.00 0.00 0.00 19 1002.2
20260503235505 66 16 0.9 3.5 0.00 0.00 0.00 19 1011.2
20260503235006 66 17 0.9 4.3 0.00 0.00 0.00 18 1011.2
20260503234505 66 17 0.9 4.3 0.00 0.00 0.00 17 1002.2
20260503234006 66 311 2.6 4.3 0.00 0.00 0.00 17 1011.3
20260503233505 66 300 0.9 3.5 0.00 0.00 0.00 18 1011.2
20260503233007 67 304 0.9 2.6 0.00 0.00 0.00 18 1011.2
20260503233002 67 304 0.9 2.6 0.00 0.00 0.00 18 1002.1
20260503232505 67 316 0.0 6.1 0.00 0.00 0.00 18 1011.2
20260503231504 67 338 2.6 10.4 0.00 0.00 0.00 16 1011.2
20260503231005 68 338 3.5 10.4 0.00 0.00 0.00 17 1011.2
20260503230506 67 355 1.7 7.0 0.00 0.00 0.00 18 1011.2
20260503230007 67 61 3.5 7.0 0.00 0.00 0.00 17 1011.3
20260503230005 67 61 2.6 7.0 0.00 0.00 0.00 17 1002.2
20260503225505 67 5 1.7 9.6 0.00 0.00 0.00 17 1011.2
20260503225006 68 37 6.1 13.0 0.00 0.00 0.00 16 1011.2
20260503224507 69 19 1.7 11.3 0.00 0.00 0.00 17 1002.2
20260503224505 69 19 2.6 11.3 0.00 0.00 0.00 17 1011.3
20260503224007 69 17 3.5 8.7 0.00 0.00 0.00 15 1011.3
20260503223505 68 24 2.6 8.7 0.00 0.00 0.00 17 1011.4
20260503223005 68 5 2.6 5.2 0.00 0.00 0.00 17 1011.4
20260503223002 68 5 2.6 5.2 0.00 0.00 0.00 17 1002.3
20260503222506 68 38 2.6 4.3 0.00 0.00 0.00 16 1011.4
20260503222005 68 150 0.9 7.8 0.00 0.00 0.00 16 1011.4
20260503221505 68 301 4.3 7.8 0.00 0.00 0.00 15 1011.5
20260503221503 68 301 3.5 7.8 0.00 0.00 0.00 15 1002.5
20260503221005 68 317 4.3 7.8 0.00 0.00 0.00 17 1011.6
20260503220507 68 297 1.7 7.8 0.00 0.00 0.00 14 1011.6
20260503220005 68 223 4.3 7.8 0.00 0.00 0.00 16 1011.8
20260503220001 68 223 4.3 7.8 0.00 0.00 0.00 16 1002.8
20260503215505 68 277 4.3 7.8 0.00 0.00 0.00 15 1011.8
20260503215005 67 212 5.2 7.8 0.00 0.00 0.00 15 1011.9
20260503214504 67 117 0.9 8.7 0.00 0.00 0.00 15 1012.0
20260503214006 68 135 4.3 8.7 0.00 0.00 0.00 15 1012.1
20260503213505 68 220 2.6 7.8 0.00 0.00 0.00 15 1012.1
20260503213005 67 244 4.3 9.6 0.00 0.00 0.00 15 1012.4
20260503213003 67 244 3.5 9.6 0.00 0.00 0.00 15 1003.5
20260503212508 68 303 4.3 9.6 0.00 0.00 0.00 14 1012.4
20260503212005 68 306 2.6 7.8 0.00 0.00 0.00 15 1012.5
20260503211559 68 217 1.7 8.7 0.00 0.00 0.00 16 1003.7
20260503211506 68 300 1.7 8.7 0.00 0.00 0.00 15 1012.6
20260503211504 68 300 0.9 8.7 0.00 0.00 0.00 15 1003.7
20260503211006 68 5 3.5 8.7 0.00 0.00 0.00 18 1012.7
20260503210505 67 355 3.5 9.6 0.00 0.00 0.00 17 1012.8
20260503210005 67 326 4.3 9.6 0.00 0.00 0.00 14 1004.0
20260503205506 67 355 2.6 8.7 0.00 0.00 0.00 18 1013.0
20260503204505 66 300 4.3 10.4 0.00 0.00 0.00 16 1013.2
20260503204005 67 350 3.5 9.6 0.00 0.00 0.00 16 1013.3
20260503203505 67 21 3.5 9.6 0.00 0.00 0.00 13 1013.3
20260503203005 68 10 3.5 4.3 0.00 0.00 0.00 15 1013.4
20260503203002 68 10 2.6 4.3 0.00 0.00 0.00 15 1004.6
20260503202504 67 202 0.9 7.0 0.00 0.00 0.00 15 1013.5
20260503201506 67 28 3.5 11.3 0.00 0.00 0.00 16 1013.7
20260503201504 67 28 3.5 11.3 0.00 0.00 0.00 16 1004.9
20260503200505 66 326 5.2 8.7 0.00 0.00 0.00 15 1013.9
20260503200007 67 288 5.2 8.7 0.00 0.00 0.00 15 1014.0
20260503195505 67 267 6.1 9.6 0.00 0.00 0.00 15 1014.1
20260503195006 66 302 5.2 11.3 0.00 0.00 0.00 16 1014.2
20260503194504 66 302 5.2 13.0 0.00 0.00 0.00 17 1014.2
20260503194006 66 304 6.1 13.0 0.00 0.00 0.00 16 1014.3
20260503193505 65 302 5.2 15.6 0.00 0.00 0.00 16 1014.3
20260503193002 65 5 7.8 15.6 0.00 0.00 0.00 17 1005.7
20260503192005 65 345 6.1 11.3 0.00 0.00 0.00 18 1014.4
20260503191505 65 15 4.3 8.7 0.00 0.00 0.00 15 1014.5
20260503191503 65 15 3.5 8.7 0.00 0.00 0.00 15 1005.9
20260503191006 65 28 1.7 9.6 0.00 0.00 0.00 17 1014.6
20260503190500 66 338 6.1 13.0 0.00 0.00 0.00 17 1014.7
20260503190004 66 326 4.3 13.0 0.00 0.00 0.00 18 1006.2
20260503185506 66 330 4.3 11.3 0.00 0.00 0.00 16 1014.8
20260503185006 65 350 2.6 10.4 0.00 0.00 0.00 16 1014.8
20260503184505 64 272 5.2 13.0 0.00 0.00 0.00 18 1006.4
20260503184005 64 269 7.0 13.0 0.00 0.00 0.00 20 1015.0
20260503183504 64 303 6.1 12.2 0.00 0.00 0.00 18 1015.2
20260503183003 64 316 4.3 15.6 0.00 0.00 0.00 18 1006.7
20260503182506 64 290 7.8 15.6 0.00 0.00 0.00 18 1015.2
20260503182006 64 317 6.1 11.3 0.00 0.00 0.00 19 1015.3
20260503181505 64 301 5.2 13.9 0.00 0.00 0.00 18 1015.4
20260503181503 64 301 4.3 13.9 0.00 0.00 0.00 18 1007.0
20260503181006 64 288 9.6 16.5 0.00 0.00 0.00 19 1015.5
20260503180505 64 296 11.3 16.5 0.00 0.00 0.00 18 1015.4
20260503180007 64 300 7.0 13.9 0.00 0.00 0.00 19 1007.1
20260503175504 64 289 8.7 18.2 0.00 0.00 0.00 21 1015.7
20260503175005 64 323 6.1 14.8 0.00 0.00 0.00 20 1015.7
20260503174504 64 288 6.1 14.8 0.00 0.00 0.00 20 1015.7
20260503174006 64 300 7.8 14.8 0.00 0.00 0.00 20 1015.7
20260503173505 65 283 7.0 19.1 0.00 0.00 0.00 22 1015.9
20260503173009 63 267 6.1 19.1 0.00 0.00 0.00 23 1007.5
20260503173006 63 267 7.0 19.1 0.00 0.00 0.00 23 1015.9
20260503172505 63 285 7.0 18.2 0.00 0.00 0.00 20 1016.1
20260503172005 63 283 8.7 16.5 0.00 0.00 0.00 19 1016.1
20260503171507 63 288 11.3 16.5 0.00 0.00 0.00 19 1007.9
20260503171505 63 288 12.2 16.5 0.00 0.00 0.00 19 1016.3
20260503171005 64 281 5.2 15.6 0.00 0.00 0.00 20 1016.2
20260503170505 63 305 9.6 15.6 0.00 0.00 0.00 20 1016.3
20260503151003 59 186 2.6 8.7 0.00 0.00 0.00 27 1016.9
20260503150504 59 244 2.6 7.8 0.00 0.00 0.00 28 1016.9
20260503131006 49 274 1.7 5.2 0.00 0.00 0.00 43 1016.9
20260503130504 48 238 1.7 4.3 0.00 0.00 0.00 46 1016.9
20260503110504 43 207 2.6 6.1 0.00 0.00 0.00 48 1016.0
20260503090505 44 231 1.7 3.5 0.00 0.00 0.00 43 1016.3
20260503090110 44 224 1.7 3.5 0.00 0.00 0.00 44 1009.6
20260503081505 44 216 2.6 6.1 0.00 0.00 0.00 43 1016.3
20260503081502 44 216 2.6 6.1 0.00 0.00 0.00 43 1009.9
20260503081005 44 202 2.6 6.1 0.00 0.00 0.00 43 1016.3
20260503080504 45 238 1.7 6.1 0.00 0.00 0.00 42 1016.4
20260503072505 48 216 2.6 7.0 0.00 0.00 0.00 35 1016.7
20260503072005 48 207 2.6 7.0 0.00 0.00 0.00 34 1016.7
20260503071506 48 232 2.6 7.8 0.00 0.00 0.00 33 1016.7
20260503071503 48 232 1.7 7.8 0.00 0.00 0.00 33 1010.5
20260503071005 49 212 2.6 7.8 0.00 0.00 0.00 33 1016.7
20260503070506 49 214 2.6 9.6 0.00 0.00 0.00 32 1016.7
20260503055006 51 233 6.1 14.8 0.00 0.00 0.00 29 1017.0
20260503054503 51 190 6.1 14.8 0.00 0.00 0.00 29 1011.2
20260503054007 51 185 5.2 12.2 0.00 0.00 0.00 29 1017.1
20260503053505 51 166 5.2 9.6 0.00 0.00 0.00 29 1017.1
20260503053006 51 182 5.2 9.6 0.00 0.00 0.00 29 1011.3
20260503052505 51 215 5.2 12.2 0.00 0.00 0.00 28 1017.1
20260503052006 51 168 7.0 13.9 0.00 0.00 0.00 28 1017.0
20260503051505 51 188 6.1 12.2 0.00 0.00 0.00 29 1017.0
20260503051006 51 194 5.2 13.9 0.00 0.00 0.00 29 1017.1
20260503050505 51 176 6.1 13.9 0.00 0.00 0.00 29 1017.1
20260503050006 50 232 7.0 11.3 0.00 0.00 0.00 29 1017.1
20260503050003 50 232 6.1 11.3 0.00 0.00 0.00 29 1011.5
20260503045505 50 169 6.1 10.4 0.00 0.00 0.00 30 1017.2
20260503044504 49 172 4.3 7.8 0.00 0.00 0.00 31 1011.8
20260503043505 48 197 3.5 7.8 0.00 0.00 0.00 34 1017.4
20260503043003 47 196 3.5 7.8 0.00 0.00 0.00 34 1011.9
20260503041505 47 202 1.7 5.2 0.00 0.00 0.00 35 1017.5
20260503041503 47 202 1.7 5.2 0.00 0.00 0.00 35 1012.0
20260503041006 47 193 1.7 4.3 0.00 0.00 0.00 37 1017.4
20260503040505 47 231 0.9 2.6 0.00 0.00 0.00 37 1017.5
20260503040006 47 217 0.9 3.5 0.00 0.00 0.00 38 1017.5
20260503040004 47 217 0.0 3.5 0.00 0.00 0.00 38 1012.1
20260503035005 50 188 1.7 4.3 0.00 0.00 0.00 32 1017.5
20260503034505 50 183 1.7 4.3 0.00 0.00 0.00 32 1017.4
20260503034503 50 183 1.7 4.3 0.00 0.00 0.00 32 1011.9
20260503034006 50 192 2.6 6.1 0.00 0.00 0.00 31 1017.4
20260503033005 51 165 3.5 7.0 0.00 0.00 0.00 31 1017.4
20260503033003 51 165 2.6 7.0 0.00 0.00 0.00 31 1012.0
20260503032505 51 158 5.2 7.8 0.00 0.00 0.00 30 1017.4
20260503032005 51 187 4.3 7.0 0.00 0.00 0.00 31 1017.3
20260503031504 51 150 4.3 7.8 0.00 0.00 0.00 31 1011.9
20260503030505 52 188 5.2 8.7 0.00 0.00 0.00 31 1017.2
20260503030005 52 152 5.2 8.7 0.00 0.00 0.00 31 1011.9